Wind_Speed
45 45 46 47 48 49 50 51 51 51 51 51 52 52 52 52 53 53 53 54 54 54 52 52 51 52 53 52 53 53 52 52 50 48 48 48 49 48 48 48 49 49 49
44 45 46 46 47 48 49 50 51 51 51 51 51 51 51 51 52 53 53 53 54 54 54 54 52 52 52 52 52 52 52 51 49 48 47 48 49 49 49 49 49 49 50
44 44 45 46 47 48 49 50 50 51 51 51 51 51 51 51 51 51 52 52 53 53 53 53 53 52 52 51 51 51 50 49 48 48 47 47 48 48 48 48 49 49 49
43 44 45 47 48 48 49 50 50 50 51 51 51 51 51 51 50 50 51 51 52 52 52 53 52 52 51 50 50 50 49 48 48 48 47 46 46 47 48 48 49 49 48
43 43 44 45 47 48 49 49 49 50 50 50 50 50 50 51 50 50 50 51 51 51 51 51 51 51 51 51 51 51 50 49 48 48 47 46 46 48 47 48 48 49 48
42 43 44 45 46 47 48 49 49 49 49 49 49 49 49 50 50 50 50 49 49 50 50 50 50 51 51 51 51 51 51 50 49 48 47 46 45 46 47 48 48 48 48
41 42 43 44 45 45 47 47 47 48 48 48 47 47 47 48 48 48 48 47 47 48 48 48 48 48 49 49 50 50 50 50 50 49 47 46 46 46 47 47 47 47 46
38 39 40 41 42 43 43 44 44 44 45 45 45 44 44 45 45 45 46 46 45 45 45 45 46 46 47 48 48 48 48 48 48 49 48 47 46 46 47 47 47 46 45
37 37 37 38 39 40 40 40 41 42 42 42 43 43 43 43 43 43 44 44 44 44 43 44 44 45 45 46 46 46 46 46 47 48 47 47 48 47 47 47 47 46 46
34 34 35 36 37 37 38 38 38 38 39 39 39 40 40 41 41 41 41 42 42 42 42 42 43 43 43 44 44 44 44 44 45 46 46 46 47 47 47 47 46 46 46
33 33 34 34 35 36 36 36 36 36 36 37 37 37 38 38 39 39 40 40 40 40 40 40 41 41 41 41 41 41 42 43 43 43 44 44 45 46 46 47 47 46 45
31 32 32 33 33 33 34 35 35 35 35 35 35 36 36 37 38 39 39 38 38 39 39 39 39 39 39 39 39 40 41 42 42 42 42 43 43 44 45 45 45 45 44
30 30 31 31 31 32 32 33 34 34 34 34 34 34 35 36 36 37 36 37 37 37 38 38 38 38 38 39 39 39 40 41 41 40 41 41 42 43 44 44 43 42 42
28 29 30 30 31 31 31 32 32 33 33 33 34 34 34 34 35 35 35 35 36 36 36 37 37 38 38 38 38 39 39 40 39 39 39 40 41 41 41 41 40 39 37
29 29 29 30 30 31 31 31 31 31 32 32 32 32 32 32 33 33 33 34 34 35 35 36 36 36 37 37 38 38 37 37 37 37 38 38 39 39 39 38 37 36 34
28 28 29 29 29 30 30 30 30 30 29 29 29 29 30 30 30 31 31 32 33 33 33 34 35 35 36 36 36 36 36 36 36 35 35 36 36 35 34 33 32 31 30
27 27 27 27 27 28 28 28 28 27 27 27 28 28 28 28 28 29 29 30 30 31 31 31 31 32 33 33 33 33 33 33 33 32 32 31 31 30 29 29 28 28 28
25 25 25 25 25 25 25 25 25 26 26 25 26 26 26 26 26 27 27 28 29 29 29 29 30 30 30 30 30 30 30 30 29 29 28 27 26 26 26 26 26 26 26
24 24 24 24 23 23 23 23 23 24 24 24 24 25 25 25 26 26 26 27 27 28 27 27 27 27 27 27 27 27 26 26 25 25 25 24 23 23 23 23 23 23 23
23 23 22 23 23 22 21 21 21 22 22 22 22 23 23 24 24 24 24 24 24 24 24 23 23 23 24 24 24 23 23 23 23 23 22 21 20 20 20 20 20 20 20
21 21 21 21 21 21 20 20 20 21 21 21 21 21 22 22 22 22 21 21 21 21 21 21 21 21 20 20 20 20 20 20 19 19 19 19 18 18 18 19 18 18 18
20 19 20 20 19 19 19 19 19 20 20 20 20 20 20 20 20 19 19 19 18 18 18 18 18 18 18 18 19 19 18 18 18 18 17 17 17 17 17 17 18 17 17
19 19 19 19 18 19 19 18 18 17 18 18 18 18 18 18 19 18 18 18 17 17 16 16 17 18 18 17 17 17 17 17 17 17 16 16 16 16 16 17 17 17 17
19 18 18 18 17 18 18 17 17 16 16 16 16 16 16 16 17 17 17 17 17 16 16 16 16 17 17 17 17 17 17 17 16 16 17 16 16 16 17 17 17 17 17
19 18 18 17 16 16 16 15 15 14 14 14 15 15 14 15 15 16 16 16 16 16 15 15 16 16 16 17 17 17 17 17 17 16 16 16 16 17 16 16 16 17 18
19 18 17 16 16 15 15 14 14 14 14 14 14 14 14 15 15 16 16 17 17 16 16 16 16 16 17 17 17 17 17 17 17 16 16 16 16 16 16 16 16 17 17
Wind_Direction
263 263 262 263 263 263 263 262 263 263 264 263 262 263 263 262 262 261 260 259 259 259 259 261 262 261 261 261 260 261 264 266 266 266 266 267 268 269 269 269 270 270 271
263 263 263 263 264 264 263 264 264 263 263 264 263 263 262 262 262 261 261 260 260 260 260 261 262 262 261 260 260 261 263 265 266 267 267 267 267 268 269 270 270 271 272
264 264 264 264 264 264 264 265 265 265 264 264 264 263 262 262 262 262 262 262 261 260 260 261 262 262 262 261 261 263 263 265 266 267 267 267 267 267 269 270 271 272 273
265 265 265 265 265 265 265 265 266 266 265 265 264 263 263 263 262 263 263 262 261 260 260 261 261 262 262 262 262 263 263 264 266 266 267 267 267 267 269 270 271 272 273
268 267 266 267 266 266 266 266 265 265 265 264 264 264 264 263 263 263 264 263 261 260 260 261 261 261 262 262 262 262 263 265 266 266 267 268 268 268 269 270 271 271 272
270 269 267 268 268 267 267 267 267 266 265 264 264 264 264 263 263 263 264 262 261 260 260 260 261 261 261 262 263 263 263 265 265 266 267 268 268 269 269 270 271 271 272
273 272 270 270 269 268 268 268 267 266 265 265 264 265 265 265 265 264 264 263 262 262 261 260 260 261 261 262 262 264 264 266 266 266 266 267 268 269 270 270 270 271 272
276 275 274 273 271 271 269 268 266 266 264 263 263 264 264 265 266 265 264 263 263 262 261 260 260 260 261 261 261 263 265 265 267 266 266 266 268 269 270 271 271 271 272
277 276 275 275 274 272 270 269 267 266 264 263 262 263 263 265 265 265 263 262 261 261 261 259 259 260 261 261 261 262 264 264 265 266 266 266 267 268 270 271 271 272 273
277 276 276 275 274 273 272 270 268 266 265 263 263 262 263 264 264 264 263 262 260 259 260 260 260 260 261 261 261 261 262 264 265 266 265 265 267 268 269 270 271 272 273
277 275 276 276 274 272 270 269 268 266 266 265 264 264 264 264 263 263 262 261 258 259 259 260 260 261 261 261 260 261 262 265 266 266 266 266 267 268 269 270 272 273 274
279 277 276 276 275 272 270 269 268 267 266 266 267 265 265 265 265 263 262 261 259 259 259 259 260 260 260 261 262 263 264 266 266 267 267 267 268 269 270 271 272 273 274
281 280 278 277 275 274 272 270 269 267 266 267 268 267 266 266 266 265 262 260 259 258 258 258 260 260 261 262 263 264 265 266 267 267 267 268 268 270 271 272 273 273 273
283 283 281 279 277 275 275 274 272 270 268 267 267 268 267 266 265 263 261 260 259 258 259 260 260 261 261 262 262 264 265 266 266 267 268 268 269 271 271 272 272 273 273
285 283 282 280 277 277 276 275 274 272 270 269 268 267 266 266 264 262 260 259 258 258 259 260 261 260 262 263 263 264 264 264 265 266 267 268 269 270 270 270 270 271 270
285 285 283 281 279 277 276 275 274 272 271 270 269 269 267 266 263 260 259 259 260 260 260 261 261 260 260 261 263 262 262 263 265 267 268 269 268 268 268 268 267 268 269
286 286 285 284 283 280 276 274 273 271 270 269 270 270 268 266 263 261 261 260 261 260 261 262 261 260 260 262 262 262 263 263 264 265 267 268 266 265 264 264 264 266 268
287 287 286 285 285 281 278 276 273 271 271 271 270 270 269 267 264 263 263 263 263 263 263 262 261 260 260 262 262 263 263 262 262 263 264 264 262 262 263 264 265 265 267
288 287 286 286 285 284 281 278 275 271 271 272 270 269 268 267 265 264 265 265 265 265 263 262 261 260 260 261 262 262 261 260 259 260 261 259 259 260 262 264 264 266 269
291 288 287 286 287 285 283 279 276 273 273 273 272 270 269 267 265 266 266 266 266 264 262 261 260 260 259 258 258 259 258 257 257 258 257 256 257 258 259 261 263 268 270
294 291 289 288 287 286 283 281 278 275 275 275 275 273 270 267 266 266 265 264 263 262 261 260 258 257 257 256 256 256 255 255 251 250 253 254 254 255 258 261 265 268 269
296 294 293 291 288 286 284 282 280 279 276 275 275 273 271 267 265 263 262 260 258 258 260 258 255 253 253 254 255 253 251 250 249 248 249 253 254 255 258 262 265 267 269
296 294 294 292 290 287 285 283 281 279 276 274 274 274 272 267 263 260 258 258 257 258 260 259 255 253 254 252 249 247 248 250 250 249 251 254 255 256 260 264 266 268 270
297 295 294 293 291 289 287 285 282 279 277 275 273 271 268 263 260 259 258 258 258 259 260 259 254 251 250 248 248 249 249 250 250 251 252 252 255 259 262 266 268 270 274
298 295 294 294 293 290 287 285 282 279 277 275 272 269 269 267 264 261 259 259 259 259 258 257 254 251 249 250 249 247 247 247 248 250 252 254 257 262 266 268 270 273 276
299 297 294 293 294 292 291 287 282 278 277 276 274 271 270 269 267 264 261 259 258 259 258 258 255 251 250 249 247 246 245 245 248 252 254 256 259 265 269 271 272 274 278
Height
5617 5618 5620 5620 5621 5622 5623 5625 5626 5627 5628 5629 5631 5632 5633 5634 5635 5637 5638 5640 5642 5644 5647 5649 5651 5653 5655 5656 5658 5660 5661 5662 5664 5667 5667 5666 5666 5666 5667 5667 5668 5668 5668
5605 5606 5607 5608 5609 5609 5610 5611 5612 5613 5614 5615 5616 5617 5619 5620 5621 5622 5624 5625 5628 5630 5632 5634 5636 5638 5641 5642 5644 5646 5647 5648 5650 5652 5653 5653 5653 5653 5653 5654 5654 5654 5654
5593 5594 5594 5595 5596 5596 5597 5597 5598 5599 5600 5601 5602 5604 5605 5606 5607 5608 5610 5611 5613 5616 5618 5620 5622 5624 5626 5628 5630 5632 5633 5635 5636 5638 5639 5640 5639 5639 5640 5640 5640 5640 5640
5581 5581 5582 5582 5582 5582 5583 5584 5585 5586 5587 5587 5588 5590 5591 5592 5593 5595 5596 5597 5599 5602 5604 5606 5608 5610 5612 5615 5616 5618 5620 5622 5623 5625 5626 5626 5626 5626 5627 5627 5627 5627 5627
5569 5569 5569 5569 5569 5569 5569 5570 5571 5572 5573 5573 5574 5576 5577 5578 5580 5581 5582 5584 5585 5588 5590 5592 5594 5597 5599 5601 5603 5605 5607 5608 5610 5611 5612 5613 5613 5613 5614 5613 5614 5614 5614
5557 5556 5556 5556 5555 5555 5556 5556 5557 5558 5558 5559 5560 5562 5563 5564 5566 5567 5568 5570 5572 5574 5576 5578 5581 5583 5585 5587 5589 5591 5593 5595 5597 5598 5599 5599 5600 5600 5599 5600 5600 5601 5601
5544 5543 5543 5543 5542 5542 5542 5542 5543 5543 5544 5545 5546 5548 5549 5551 5552 5553 5555 5556 5558 5560 5562 5565 5567 5570 5572 5574 5576 5578 5580 5581 5583 5584 5585 5586 5586 5587 5586 5587 5586 5586 5587
5532 5531 5531 5530 5529 5529 5529 5529 5529 5530 5531 5532 5533 5535 5536 5537 5538 5540 5541 5543 5545 5547 5549 5552 5554 5557 5559 5561 5563 5565 5566 5568 5569 5570 5572 5573 5573 5573 5573 5573 5573 5573 5574
5521 5520 5519 5518 5517 5517 5517 5517 5517 5517 5518 5519 5521 5522 5523 5525 5526 5527 5528 5531 5533 5535 5537 5539 5541 5544 5546 5548 5550 5552 5554 5555 5556 5557 5558 5559 5559 5560 5560 5560 5560 5560 5561
5511 5510 5508 5507 5506 5506 5505 5505 5505 5506 5507 5507 5509 5510 5511 5513 5514 5515 5516 5518 5521 5523 5525 5527 5529 5531 5533 5534 5537 5539 5541 5542 5543 5545 5545 5546 5546 5547 5547 5547 5547 5547 5548
5500 5499 5498 5497 5496 5495 5495 5494 5495 5495 5496 5497 5498 5499 5500 5501 5502 5503 5505 5506 5509 5511 5513 5516 5518 5519 5521 5523 5524 5526 5528 5529 5531 5532 5533 5534 5534 5534 5534 5534 5534 5534 5535
5490 5489 5488 5486 5485 5484 5484 5484 5484 5484 5485 5486 5487 5488 5489 5490 5491 5492 5493 5495 5497 5500 5502 5504 5506 5508 5509 5511 5513 5514 5515 5517 5518 5519 5520 5521 5521 5522 5522 5522 5522 5521 5521
5481 5479 5478 5476 5475 5474 5474 5473 5473 5474 5475 5476 5477 5478 5478 5479 5480 5481 5482 5484 5486 5488 5491 5493 5495 5497 5498 5500 5501 5502 5503 5504 5506 5507 5508 5509 5509 5509 5510 5510 5509 5509 5509
5472 5470 5469 5467 5466 5465 5464 5463 5463 5463 5464 5465 5466 5467 5468 5469 5470 5471 5472 5474 5475 5478 5480 5482 5484 5485 5487 5488 5489 5490 5492 5493 5494 5495 5496 5497 5497 5498 5498 5498 5498 5497 5497
5463 5462 5460 5458 5457 5456 5455 5454 5454 5454 5454 5455 5456 5457 5458 5459 5460 5461 5462 5464 5466 5468 5470 5471 5473 5474 5476 5477 5478 5480 5481 5481 5482 5484 5484 5485 5485 5486 5486 5486 5486 5486 5487
5455 5453 5451 5450 5448 5447 5446 5446 5445 5445 5445 5445 5446 5447 5448 5449 5450 5451 5452 5454 5455 5457 5459 5461 5462 5464 5465 5466 5468 5469 5470 5471 5472 5472 5473 5474 5474 5474 5475 5476 5476 5477 5478
5447 5445 5443 5441 5440 5439 5438 5438 5438 5438 5437 5437 5438 5438 5438 5439 5440 5442 5443 5444 5446 5447 5449 5450 5452 5453 5455 5456 5457 5459 5460 5460 5461 5462 5463 5463 5464 5464 5465 5467 5468 5468 5469
5439 5437 5435 5434 5432 5431 5430 5430 5430 5430 5430 5430 5430 5430 5430 5431 5432 5433 5434 5436 5436 5438 5439 5441 5442 5443 5445 5446 5448 5449 5450 5451 5452 5453 5454 5454 5455 5456 5457 5458 5459 5460 5461
5431 5430 5428 5427 5426 5424 5424 5423 5422 5422 5423 5423 5422 5422 5423 5423 5424 5425 5426 5427 5428 5429 5430 5432 5433 5435 5436 5437 5439 5440 5441 5442 5443 5445 5446 5447 5448 5449 5450 5451 5452 5452 5453
5425 5423 5422 5421 5419 5418 5417 5416 5416 5416 5416 5416 5415 5415 5416 5416 5417 5418 5418 5419 5420 5421 5423 5424 5425 5427 5428 5429 5431 5432 5433 5435 5436 5437 5439 5440 5441 5442 5443 5444 5445 5446 5446
5420 5418 5416 5415 5413 5412 5411 5410 5410 5410 5410 5409 5409 5409 5409 5410 5411 5411 5412 5412 5414 5415 5416 5417 5418 5420 5421 5422 5424 5425 5427 5428 5429 5431 5432 5434 5435 5436 5437 5438 5439 5440 5440
5414 5412 5411 5409 5408 5406 5405 5405 5404 5404 5403 5403 5403 5403 5403 5404 5404 5405 5406 5407 5408 5409 5410 5411 5412 5413 5415 5416 5418 5419 5421 5422 5424 5425 5427 5429 5430 5431 5432 5433 5434 5434 5434
5409 5407 5406 5404 5402 5401 5400 5399 5398 5398 5398 5397 5397 5397 5397 5398 5399 5400 5400 5401 5402 5403 5404 5405 5406 5407 5409 5410 5412 5414 5416 5418 5419 5421 5422 5424 5425 5426 5427 5428 5428 5428 5428
5404 5402 5400 5399 5397 5396 5395 5394 5393 5392 5392 5392 5392 5392 5392 5393 5394 5394 5395 5396 5397 5398 5398 5399 5400 5402 5404 5405 5407 5409 5411 5413 5414 5416 5417 5419 5420 5421 5422 5422 5423 5423 5423
5399 5397 5395 5394 5392 5391 5390 5389 5388 5388 5388 5388 5388 5388 5388 5388 5389 5389 5390 5391 5391 5392 5393 5394 5395 5397 5398 5400 5402 5404 5406 5408 5409 5411 5412 5414 5415 5416 5417 5417 5418 5418 5417
5394 5392 5390 5389 5388 5386 5385 5385 5384 5383 5383 5383 5383 5383 5383 5383 5383 5384 5384 5385 5386 5387 5388 5389 5390 5392 5393 5395 5397 5399 5401 5402 5404 5406 5407 5409 5410 5411 5412 5412 5412 5412 5412